Location: Unspecified
(0.0000°N, 0.0000°E)
Time: 01:43:57
(UTC+01:00)

Cosmos 1072 Rocket - Visible Passes

Search period start: 31 January 2015 00:00
Search period end: 10 February 2015 00:00
Orbit: 950 x 1008 km, 82.9° (Epoch: 28 January)

Date Brightness Start Highest point End Pass type
(mag) Time Alt. Az. Time Alt. Az. Time Alt. Az.
31 Jan 6.9 03:57:56 15° E 03:58:11 15° E 04:01:54 10° ESE visible
31 Jan 4.8 05:42:44 40° WNW 05:43:36 41° W 05:49:25 10° SSW visible
01 Feb 5.8 04:25:17 35° E 04:25:17 35° E 04:30:23 10° SSE visible
01 Feb 5.8 06:10:06 18° W 06:10:06 18° W 06:14:01 10° SW visible
02 Feb 4.9 04:52:34 55° SSE 04:52:34 55° SSE 04:57:23 10° S visible
03 Feb 7.3 03:34:58 10° ESE 03:34:58 10° ESE 03:34:59 10° ESE visible
03 Feb 5.4 05:19:46 33° SW 05:19:46 33° SW 05:23:25 10° SSW visible
04 Feb 6.7 04:02:06 19° SE 04:02:06 19° SE 04:04:01 10° SSE visible
04 Feb 6.2 05:46:54 15° SW 05:46:54 15° SW 05:48:18 10° SW visible
05 Feb 6.3 04:29:11 22° SSE 04:29:11 22° SSE 04:31:11 10° S visible
06 Feb 6.5 04:56:12 16° SSW 04:56:12 16° SSW 04:57:22 10° S visible
